Regional Weather Roundup
Issued by NWS

Home | Current Version | Previous Version | Text Only | Print | Product List | Glossary Off
Versions: 1 2 3 4 5 6 7 8 9 10 11 12 13 14 15 16 17 18 19 20 21 22 23 24 25 26 27 28 29 30 31 32 33 34 35 36 37 38 39 40 41 42 43 44 45 46 47 48 49 50

000
ASUS43 KFSD 301110
RWRSD

WEATHER ROUNDUP FOR SOUTH DAKOTA
NATIONAL WEATHER SERVICE SIOUX FALLS SD
600 AM CDT SUN AUG 30 2015

NOTE: "FAIR" INDICATES FEW OR NO CLOUDS BELOW 12,000 FEET WITH NO
SIGNIFICANT WEATHER AND/OR OBSTRUCTIONS TO VISIBILITY.


SDZ001>005-009-010-012>017-301200-
NORTHWEST AND NORTH CENTRAL SOUTH DAKOTA

CITY           SKY/WX    TMP DP  RH WIND       PRES   REMARKS
BUFFALO          N/A     66  48  52 SE6       29.71F
FAITH            N/A     60  48  64 S17       29.79F
MOBRIDGE       MOCLDY    66  64  93 SE10      29.78F
$$

SDZ012>016-024>037-041>051-057-063-072>074-301200-
SOUTHWEST AND SOUTH CENTRAL SOUTH DAKOTA

CITY           SKY/WX    TMP DP  RH WIND       PRES   REMARKS
RAPID CTY ARPT MOCLDY    64  46  52 SE6       29.85F
PIERRE         PTCLDY    67  56  67 S8        29.82F
CUSTER         PTCLDY    64  39  39 W6        30.04F
ELLSWORTH AFB  MOCLDY    67  46  47 S13       29.83F
PHILIP         CLEAR     70  50  49 VRB6      29.82F
PINE RIDGE     CLEAR     66  42  41 SW9       29.92F
WINNER         FAIR      70  57  63 S18       29.90S
$$

SDZ004>011-016>023-039-040-301200-
NORTHEAST SOUTH DAKOTA

CITY           SKY/WX    TMP DP  RH WIND       PRES   REMARKS
ABERDEEN       CLEAR     65  62  90 S12       29.85S
WATERTOWN      CLEAR     62  60  93 S12       29.92F
BROOKINGS      CLOUDY    63  57  82 S10       29.97F
SISSETON         N/A     64  61  90 S8        29.85S
$$

SDZ017-020-022-023-036>040-048>070-301200-
SOUTHEAST SOUTH DAKOTA

CITY           SKY/WX    TMP DP  RH WIND       PRES   REMARKS
SIOUX FALLS    CLOUDY    62  60  93 S13       29.99R FOG
HURON          CLEAR     64  62  93 S10       29.88F
CHAMBERLAIN    CLEAR     66  61  82 S9        29.89F
MITCHELL       CLEAR     63  62  97 S7        29.92S
YANKTON        CLOUDY    64  61  88 S7        29.98R
$$

ABBREVIATIONS USED IN REMARKS
   TC - TEMPERATURE IN CELSIUS
  WCI - WIND CHILL INDEX
   HX - HEAT INDEX
  VSB - VISIBILITY




USA.gov is the U.S. government's official web portal to all federal, state and local government web resources and services.